sat.trackr.live / text

‹ back to catalog

STARLINK-35415

NORAD 65885 · 2025-224D

PAYLOAD ACTIVE UNKNOWN

§ Identity

Operator
Country
US
Launch date
2025-10-07
Launch site
AFETR
Launch vehicle
Mass (kg)
RCS (m²)

Purposes: comms

External: N2YO · Heavens-Above · Gunter

§ Orbital elements

Epoch: 2026-05-25T01:39:38.981952Z

Period
93.85 min
Inclination
53.1582°
Eccentricity
0.0001186
Mean motion
15.34393517 rev/d
Perigee alt
461.9 km
Apogee alt
463.5 km
Semi-major
6,840.9 km
B*
7.8789e-4
RAAN
15.4947°
Arg perigee
87.7566°
Mean anomaly
272.3573°
Rev number
3,648

§ Raw data

STARLINK-354151 65885U 25224D   26145.06920118  .00026332  00000+0  78789-3 0  99992 65885  53.1582  15.4947 0001186  87.7566 272.3573 15.34393517 36484

JSON: /api/v1/satellites/65885 · /tle

For live sub-satellite position, see the globe view (requires WebGL).

§ Visibility from observer

Set your observer location to see the next 7 days of passes ≥ 10°. The values pass through the URL so the page stays shareable.

No JS? Fill the form by hand. The geolocation button needs JavaScript.